STARLINK-31063, 58547

Orbit data source: Space-Track

STARLINK-31063, 58547 is a payload satellite owned by SpaceX/Seattle (US) in LEO that was launched on Fri, 08 Dec 2023 UTC via an FALCON 9 launch vehicle from the Air Force Western Test Range (AFWTR). Payload-class satellites include a variety of spacecraft equipped with specific instruments for various scientific and technological missions. These include communications satellites like Starlink; space stations such as the ISS; scientific satellites like the Hubble; Earth observation satellites from companies like Planet Labs, Umbra, and HawkEye 360; GPS; miniature CubeSats for education and research; and military/defense satellites.

Loading next visibility...
Identifier
58547, 2023-192S
Orbit
LEO
Country
Flag of USUS
Related business
Manufacturer
SpaceX/Seattle
Mission
Operational Commercial Communications
Bus & Motor
STARLINK V2M, Unknown motor
Mass
730 kg wet, ~700 kg dry
Launch date (UTC)
2023-12-08 (3 years ago)
Launch vehicle
FALCON 9
Launch site
Air Force Western Test Range (AFWTR)
Object type
Payload
Rocket body
Debris
Shape & HBR
Box + 2 Pan, 17.7 m
Radar Cross Section
33.884 m², Large (>1 m²)

Expand to show TLE details & history
Last TLE update: 3 days ago

TLE from 3 days ago
0 STARLINK-31063
1 58547U 23192S   26170.73186514  .00000111  00000-0  15860-4 0  9994
2 58547  53.1601 298.4220 0001243 137.2185 222.8913 15.30194899141755
Epoch: 2026-06-19T17:33Z
TLE epoch observation values (Epoch: 2026-06-19T17:33:53.148Z)
Latitude
0.00002°
Longitude
126.99394°
Altitude
476.754 km
Speed
7.628 km/s
True Right ascension
19h 53m 41s
True Declination
0° 00' 00"
Sunlit
Object was in full shadow at epoch
Visualization orbit readout
Latitude
Unknown
Longitude
Unknown
Altitude
Unknown
Speed
Unknown
Apparent Right ascension
Unknown
Apparent Declination
Unknown
Sunlit
N/A
Visualization observer readout
Local Sidereal Time
21:29:12
Azimuth
Unknown
Elevation
Unknown
Doppler factor
Unknown
Orbital elements
Apogee altitude
476.339 km
Perigee altitude
474.635 km
Semi-major axis
6,853.624 km
Eccentricity
0.00012
Inclination
53.1601°
RAAN
298.422°
Arg. of periapsis
137.2185°
True anomaly
222.88161°
Mean anomaly
222.8913°
Eccentric anomaly
222.88645°
Mean motion
3.82528 °/min
Orbital period
94.11 mins
BSTAR
0.00001586
Loading maneuver chart data...
Computing Atmospheric mass density...
Loading historical data...
Loading historical data...
Loading historical data...
Loading historical data...
Loading historical data...
Loading historical data...
Loading historical data...

Documentation

Showing up to 5 results
|